Location: Amberg
(48.0613°N, 10.6820°E)
Time: 21:18:02
(UTC+00:00)

Cosmos 489 Rocket - Pass Details

Date: 18 November 2025
Orbit: 952 x 982 km, 74.0° (Epoch: 04 December)

Event Time Altitude Azimuth Distance (km) Brightness Sun altitude
Rises 17:10:36 0° 338° (NNW) 3,668 7.6 -15.6°
Reaches altitude 10° 17:13:11 10° 341° (NNW) 2,713 6.9 -16.0°
Maximum altitude 17:19:26 66° 64° (ENE) 1,042 4.4 -17.1°
Drops below altitude 10° 17:25:36 10° 147° (SSE) 2,678 6.6 -18.1°
Sets 17:28:07 0° 150° (SSE) 3,617 7.3 -18.5°
